Regional Weather Roundup
Issued by NWS

Home | Current Version | Previous Version | Graphics & Text | Print | Product List | Glossary On
Versions: 1 2 3 4 5 6 7 8 9 10 11 12 13 14 15 16 17 18 19 20 21 22 23 24 25 26 27 28 29 30 31 32 33 34 35 36 37 38 39 40 41 42 43 44 45 46 47 48 49 50
000
ASUS45 KBOI 021610
RWRID
WEATHER ROUNDUP FOR IDAHO
NATIONAL WEATHER SERVICE BOISE ID
1000 AM MDT TUE SEP 02 2014

NOTE: "FAIR" INDICATES FEW OR NO CLOUDS BELOW 12000 FEET
WITH NO SIGNIFICANT WEATHER AND/OR OBSTRUCTIONS TO VISIBILITY

IDZ012-014-021700-
SOUTHWEST IDAHO


CITY           SKY/WX    TMP DP  RH WIND       PRES   REMARKS
BOISE          SUNNY     67  37  33 CALM      29.96S
CALDWELL       SUNNY     63  37  39 SE3       29.97F
MOUNTAIN HOME  SUNNY     64  40  42 SE13      29.97F
$$

IDZ016-017-021700-
SOUTHCENTRAL IDAHO


CITY           SKY/WX    TMP DP  RH WIND       PRES   REMARKS
BURLEY         SUNNY     59  46  62 CALM      30.03S
JEROME         SUNNY     64  43  46 N6        30.03S
TWIN FALLS     SUNNY     65  44  46 E6        30.02F
$$

IDZ019>023-021700-
SOUTHEAST IDAHO


CITY           SKY/WX    TMP DP  RH WIND       PRES   REMARKS
IDAHO FALLS    SUNNY     63  40  42 S9        30.06F
POCATELLO      SUNNY     62  41  46 CALM      30.06S
REXBURG        SUNNY     60  41  49 SW9       30.07S
$$

IDZ006-010-011-018-031-032-021700-
CENTRAL IDAHO MOUNTAINS


CITY           SKY/WX    TMP DP  RH WIND       PRES   REMARKS
MCCALL         SUNNY     51  37  58 S3        30.03F
HAILEY         SUNNY     54  27  35 NW7       30.09F
STANLEY          N/A     44  30  57 VRB3      30.13F
SALMON         SUNNY     52  43  71 CALM      30.01F
CHALLIS        SUNNY     56  36  47 CALM      30.05F
$$

IDZ002-004-006-007-026-021700-
NORTHERN IDAHO


CITY           SKY/WX    TMP DP  RH WIND       PRES   REMARKS
LEWISTON       SUNNY     62  45  53 N5        29.88F
LOWELL           N/A     53  46  77 N3        29.95F
COEUR D`ALENE  MOSUNNY   61  45  55 S13       29.85F
MULLAN PASS    MOSUNNY   50  38  63 VRB5      29.96F
$$



USA.gov is the U.S. government's official web portal to all federal, state and local government web resources and services.